Weather History for Dallas/Ft Worth, TX

Change the Weather History Date:

Saturday, February 18, 2012

  Actual Average Record
Temperature  
Mean Temperature 50 °F 50 °F  
Max Temperature 53 °F 61 °F 85 °F (1986)
Min Temperature 46 °F 40 °F 10 °F (1936)
Degree Days  
Heating Degree Days 15 15  
Month to date heating degree days 277 295  
Since 1 July heating degree days 1574 1800  
Cooling Degree Days 0 0  
Month to date cooling degree days 0 0  
Year to date cooling degree days 3 2  
Moisture  
Dew Point 46 °F    
Average Humidity 86    
Maximum Humidity 100    
Minimum Humidity 71    
Precipitation  
Precipitation 1.40 in 0.10 in 1.55 in (1921)
Month to date precipitation 1.88 1.65  
Year to date precipitation 8.06 3.78  
Snow  
Snow 0.00 in 0.00 in T in (1927)
Month to date snowfall 0.3 0.3  
Since 1 July snowfall 0.3 0.9  
Snow Depth 0.00 in    
Sea Level Pressure  
Sea Level Pressure 29.95 in    
Wind  
Wind Speed 12 mph (NNE)    
Max Wind Speed 23 mph    
Max Gust Speed 26 mph    
Visibility 6 miles    
Events Rain    
T = Trace of Precipitation, MM = Missing Value Source: NWS Daily Summary

Daily Weather History Graph

Daily Weather History Graph

Search for Another Location

Airport:

Trip Planner

Search our weather history database for the weather conditions in past years. The results will help you decide how hot, cold, wet, or windy it might be!

Date:

Astronomy

Feb. 18, 2012 Rise Set
Actual Time 7:08 AM CST 6:15 PM CST
Civil Twilight 6:43 AM CST 6:40 PM CST
Nautical Twilight 6:14 AM CST 7:09 PM CST
Astronomical Twilight 5:46 AM CST 7:38 PM CST
Moon 4:41 AM CST (2/18) 3:20 PM CST (2/18)
Length of Visible Light 11h 57m
Length of Day
11h 06m
Waning Crescent, 11% of the Moon is Illuminated
Feb 18
Waning Crescent
Feb 21
New
Feb 29
First Quarter
Mar 8
Full
Mar 14
Last Quarter

Hourly Weather History & Observations

Time (CST) Temp. Windchill Dew Point Humidity Pressure Visibility Wind Dir Wind Speed Gust Speed Precip Events Conditions
12:53 AM 52.0 °F - 46.0 °F 80% 29.97 in 9.0 mi ENE 9.2 mph - 0.00 in Rain Light Rain
1:53 AM 51.1 °F - 46.9 °F 86% 29.98 in 8.0 mi ENE 6.9 mph - 0.02 in Rain Light Rain
2:53 AM 50.0 °F - 46.9 °F 89% 29.96 in 7.0 mi NE 5.8 mph - 0.03 in Rain Light Rain
3:53 AM 50.0 °F - 48.0 °F 93% 29.96 in 4.0 mi Calm Calm - 0.10 in Rain Rain
4:46 AM 50.0 °F - 48.2 °F 94% 29.97 in 3.0 mi North 6.9 mph - 0.15 in Rain Rain
4:53 AM 50.0 °F - 48.0 °F 93% 29.95 in 3.0 mi North 8.1 mph - 0.16 in Rain Rain
5:12 AM 50.0 °F - 48.2 °F 94% 29.97 in 4.0 mi North 8.1 mph - 0.03 in Rain Rain
5:43 AM 50.0 °F - 48.2 °F 94% 29.97 in 4.0 mi NNE 9.2 mph - 0.10 in Rain Rain
5:53 AM 48.2 °F - 48.2 °F 100% 29.94 in 3.0 mi NNE 12.7 mph - N/A Rain Rain
6:03 AM 48.2 °F - 48.2 °F 100% 29.96 in 3.0 mi NNE 9.2 mph - 0.02 in Rain Rain
6:53 AM 48.9 °F - 48.0 °F 97% 29.93 in 3.0 mi NE 12.7 mph - 0.07 in Rain Light Rain
7:53 AM 50.0 °F - 48.0 °F 93% 29.92 in 3.0 mi NE 16.1 mph - 0.03 in Rain Rain
8:53 AM 50.0 °F - 48.2 °F 94% 29.93 in 7.0 mi NE 13.8 mph - N/A   Overcast
9:10 AM 50.0 °F - 48.2 °F 94% 29.90 in 7.0 mi NE 17.3 mph - N/A   Overcast
9:49 AM 51.8 °F - 48.2 °F 88% 29.89 in 10.0 mi ENE 20.7 mph 26.5 mph N/A   Overcast
9:53 AM 51.1 °F - 46.9 °F 86% 29.88 in 8.0 mi ENE 20.7 mph 26.5 mph N/A   Overcast
10:53 AM 51.8 °F - 48.2 °F 88% 29.92 in 8.0 mi NE 12.7 mph - N/A Rain Light Rain
11:12 AM 51.8 °F - 46.4 °F 82% 29.91 in 7.0 mi NE 18.4 mph - 0.00 in   Overcast
11:53 AM 51.8 °F - 44.6 °F 76% 29.92 in 10.0 mi NE 17.3 mph 24.2 mph N/A   Overcast
12:53 PM 51.1 °F - 43.0 °F 74% 29.88 in 8.0 mi NNE 11.5 mph - 0.00 in Rain Light Rain
1:44 PM 50.0 °F - 46.4 °F 87% 29.88 in 3.0 mi North 13.8 mph - 0.03 in Rain Light Rain
1:53 PM 50.0 °F - 46.0 °F 86% 29.88 in 3.0 mi North 12.7 mph - 0.03 in Rain Rain
2:00 PM 48.2 °F - 46.4 °F 93% 29.88 in 2.5 mi North 15.0 mph - 0.01 in Rain Heavy Rain
2:53 PM 48.0 °F - 45.0 °F 89% 29.89 in 3.0 mi North 18.4 mph - 0.12 in Rain Heavy Rain
3:53 PM 46.0 °F 39.0 °F 43.0 °F 89% 29.91 in 3.0 mi North 17.3 mph - 0.26 in Rain Heavy Rain
4:09 PM 46.4 °F 39.0 °F 42.8 °F 87% 29.91 in 2.5 mi North 19.6 mph - 0.08 in Rain Heavy Rain
4:53 PM 46.0 °F 39.6 °F 44.1 °F 93% 29.93 in 6.0 mi North 15.0 mph - 0.22 in Rain Rain
5:53 PM 46.0 °F 39.3 °F 43.0 °F 89% 29.93 in 4.0 mi NNE 16.1 mph - 0.06 in Rain Rain
6:53 PM 46.0 °F 41.0 °F 43.0 °F 89% 29.95 in 7.0 mi North 10.4 mph - 0.05 in Rain Light Rain
7:00 PM 46.4 °F 41.5 °F 42.8 °F 87% 29.96 in 7.0 mi North 10.4 mph - 0.01 in Rain Light Rain
7:34 PM 46.4 °F 40.7 °F 42.8 °F 87% 29.97 in 6.0 mi NNE 12.7 mph - 0.05 in Rain Rain
7:53 PM 46.0 °F 41.0 °F 43.0 °F 89% 29.97 in 8.0 mi North 10.4 mph - 0.07 in Rain Light Rain
8:29 PM 46.4 °F 42.4 °F 42.8 °F 87% 29.99 in 9.0 mi North 8.1 mph - 0.01 in Rain Light Rain
8:53 PM 46.0 °F 43.1 °F 44.1 °F 93% 30.00 in 7.0 mi NNW 5.8 mph - 0.02 in Rain Light Rain
9:04 PM 46.4 °F 42.9 °F 44.6 °F 93% 30.01 in 7.0 mi NNW 6.9 mph - 0.00 in Rain Light Rain
9:26 PM 46.4 °F 41.5 °F 44.6 °F 93% 30.02 in 6.0 mi NW 10.4 mph - 0.00 in Rain Light Rain
9:53 PM 48.0 °F - 45.0 °F 89% 30.03 in 6.0 mi NNW 11.5 mph - 0.01 in Rain Light Rain
10:53 PM 46.9 °F - 44.1 °F 90% 30.05 in 8.0 mi North 12.7 mph - 0.00 in   Overcast
11:09 PM 46.4 °F 40.7 °F 44.6 °F 93% 30.07 in 8.0 mi NNW 12.7 mph - N/A   Overcast
11:53 PM 46.9 °F - 44.1 °F 90% 30.05 in 7.0 mi North 11.5 mph - N/A   Overcast